Regional Weather Roundup
Issued by NWS

Home | Current Version | Previous Version | Graphics & Text | Print | Product List | Glossary On
Versions: 1 2 3 4 5 6 7 8 9 10 11 12 13 14 15 16 17 18 19 20 21 22 23 24 25 26 27 28 29 30 31 32 33 34 35 36 37 38 39 40 41 42 43 44 45 46 47 48 49 50
000
ASUS43 KDMX 260004
RWRIA

WEATHER ROUNDUP FOR IOWA
NATIONAL WEATHER SERVICE DES MOINES IA
  ISSUED BY NWS QUAD CITIES IA IL
600 PM CST SUN JAN 25 2015

NOTE: "FAIR" INDICATES FEW OR NO CLOUDS BELOW 12,000 FEET WITH NO
SIGNIFICANT WEATHER AND/OR OBSTRUCTIONS TO VISIBILITY.

* - THESE STATIONS ARE NOT NWS STATIONS...THUS NOT UNDER NWS
QUALITY CONTROL.  THEY ALSO DO NOT REPORT WEATHER SUCH
AS PRECIPITATION OR FOG.

IAZ001>003-012>014-020>022-031>034-043>046-260100-
   NORTHWEST IOWA

CITY           SKY/WX    TMP DP  RH WIND       PRES   REMARKS
CARROLL *      CLOUDY    32  28  86 N6        30.06R WCI  26
CHEROKEE *     CLOUDY    32  30  93 CALM      30.06R
6HR MIN TEMP:  32; 6HR MAX TEMP:  35;

DENNISON *     CLOUDY    32  32 100 CALM      30.04S
LE MARS *      CLOUDY    34  32  93 CALM      30.05F
ORANGE CITY *  CLOUDY    36  30  80 CALM      30.03F
SHELDON *      CLOUDY    32  32 100 SW3       30.02F
SIOUX CITY     CLOUDY    37  33  85 NW6       30.06F WCI  32
6HR MIN TEMP:  36; 6HR MAX TEMP:  39;

SPENCER        CLOUDY    32  28  85 NW5       30.04S WCI  27
6HR MIN TEMP:  32; 6HR MAX TEMP:  34;

STORM LAKE *   CLOUDY    32  30  93 N3        30.05R
$$

IAZ055>058-069>071-079>083-090>094-260100-
   SOUTHWEST IOWA

CITY           SKY/WX    TMP DP  RH WIND       PRES   REMARKS
ATLANTIC *     CLEAR     32  28  86 N7        30.07R WCI  26
AUDUBON *      CLOUDY    32  28  86 N6        30.07R WCI  26
CLARINDA *     CLEAR     32  28  86 N9        30.10R WCI  24
COUNCIL BLFS * CLOUDY    37  32  81 NW7       30.05S WCI  32
CRESTON *      CLOUDY    32  30  93 N16       30.05R WCI  21
HARLAN *       MOCLDY    32  32 100 NE3       30.10S
LAMONI         CLOUDY    33  28  81 N13       30.03R WCI  24
6HR MIN TEMP:  33; 6HR MAX TEMP:  35; 6HR PCP: TRACE;

RED OAK *      CLOUDY    32  28  86 N6        30.08R WCI  26
SHENANDOAH *   CLOUDY    36  30  80 NE7       30.09R WCI  30
$$

IAZ047>049-059>061-072>074-084-260100-
   CENTRAL IOWA

CITY           SKY/WX    TMP DP  RH WIND       PRES   REMARKS
AMES           CLOUDY    32  26  78 N13       30.05R WCI  22
6HR MIN TEMP:  32; 6HR MAX TEMP:  34;

ANKENY *       CLOUDY    32  28  86 N13       30.06R WCI  22
BOONE *        CLOUDY    32  28  86 N8        30.04R WCI  25
CHARITON *     CLOUDY    32  28  86 N9        30.03R WCI  24
DES MOINES     CLOUDY    34  27  75 N10       30.05R WCI  26
6HR MIN TEMP:  34; 6HR MAX TEMP:  36;

GRINNELL *     CLOUDY    30  27  88 N5        30.02S WCI  25
6HR MIN TEMP:  29; 6HR MAX TEMP:  31;

KNOXVILLE *    CLOUDY    32  27  80 N8        30.03R WCI  25
MARSHALLTOWN   CLOUDY    31  28  89 N9        30.02R WCI  23
6HR MIN TEMP:  30; 6HR MAX TEMP:  33;

NEWTON *       CLOUDY    32  28  86 N9        30.04R WCI  24
PELLA *        CLOUDY    31  27  86 N3        30.05R
6HR MIN TEMP:  30; 6HR MAX TEMP:  32;

PERRY *          N/A     32  29  89 N9        30.06R WCI  24
6HR MIN TEMP:  32; 6HR MAX TEMP:  36;

$$

IAZ004>006-015-016-023>025-035-036-260100-
   NORTH CENTRAL IOWA

CITY           SKY/WX    TMP DP  RH WIND       PRES   REMARKS
ALGONA *       CLOUDY    28  25  86 NW14      30.05S WCI  17
CLARION *      CLOUDY    30  28  93 NW12G17   30.04R WCI  21
ESTHERVILLE    CLOUDY    27  24  89 N3        30.03S
6HR MIN TEMP:  27; 6HR MAX TEMP:  29;

FORT DODGE *   CLOUDY    30  23  74 NW7       30.06R WCI  23
6HR MIN TEMP:  30; 6HR MAX TEMP:  32;

MASON CITY     CLOUDY    27  24  89 NW9       30.05R WCI  18
6HR MIN TEMP:  27; 6HR MAX TEMP:  30;

FOREST CITY *  CLOUDY    28  23  80 NW9       30.04R WCI  20
WEBSTER CITY * CLOUDY    32  30  93 N9        30.03R WCI  24
IOWA FALLS *   CLOUDY    30  26  84 NW12      30.04R WCI  21
6HR MIN TEMP:  30; 6HR MAX TEMP:  33;

$$

IAZ007>011-017>019-026>030-037>042-050>054-066-260100-
   NORTHEAST IOWA

CITY           SKY/WX    TMP DP  RH WIND       PRES   REMARKS
CEDAR RAPIDS   CLOUDY    26  20  77 N9        30.01R WCI  17
6HR MIN TEMP:  26; 6HR MAX TEMP:  29; 6HR PCP: TRACE;

CHARLES CITY * CLOUDY    28  27  93 N7G13     30.03R WCI  21
CLINTON *      CLEAR     21  12  68 N10       30.03R WCI  10
6HR MIN TEMP:  21; 6HR MAX TEMP:  30;

DECORAH *      CLEAR     25  18  74 CALM      30.00R
DUBUQUE        CLEAR     20  13  74 N13       30.01R WCI   7
6HR MIN TEMP:  20; 6HR MAX TEMP:  26;

MONTICELLO *   CLEAR     23  18  80 NE7       30.03R WCI  15
OELWEIN *      CLEAR     27  21  80 N8        30.02R WCI  18
WATERLOO       CLOUDY    29  25  85 N10       30.02R WCI  20
6HR MIN TEMP:  28; 6HR MAX TEMP:  32;

$$

IAZ064-065-067-068-078-260100-
   EAST CENTRAL IOWA

CITY           SKY/WX    TMP DP  RH WIND       PRES   REMARKS
DAVENPORT      CLEAR     23  15  71 N13       30.01R WCI  11
6HR MIN TEMP:  23; 6HR MAX TEMP:  29; 6HR PCP: TRACE;

IOWA CITY      CLOUDY    27  20  75 N8        30.04R WCI  19
6HR MIN TEMP:  27; 6HR MAX TEMP:  30; 6HR PCP: TRACE;

MT. PLEASANT * MOCLDY    27  22  84 N12       30.01R WCI  16
6HR MIN TEMP:  27; 6HR MAX TEMP:  31;

MUSCATINE *    CLEAR     27  19  74 N12G20    30.03R WCI  16
QUAD CITIES    PTCLDY    27  17  66 N15       30.00R WCI  15
6HR MIN TEMP:  27; 6HR MAX TEMP:  30; 6HR PCP: TRACE;

$$

IAZ062-063-075>077-085>089-095>099-260100-
   SOUTHEAST IOWA

CITY           SKY/WX    TMP DP  RH WIND       PRES   REMARKS
BURLINGTON     CLOUDY    29  25  85 N18       29.98R WCI  16
6HR MIN TEMP:  29; 6HR MAX TEMP:  32; 6HR PCP: TRACE;

FAIRFIELD *    CLOUDY    28  23  80 N12       30.03R WCI  18
FORT MADISON * CLOUDY    30  27  86 N13G18    29.99R WCI  20
KEOKUK *       CLOUDY    30  25  80 N13G22    29.98R WCI  20
OSKALOOSA *    CLOUDY    29  25  84 N12       30.03R WCI  19
6HR MIN TEMP:  29; 6HR MAX TEMP:  31;

OTTUMWA        CLOUDY    29  25  85 N12       30.03R WCI  19
6HR MIN TEMP:  29; 6HR MAX TEMP:  31; 6HR PCP: TRACE;

WASHINGTON *   CLOUDY    28  27  93 N10       30.02R WCI  19
$$

ABBREVIATIONS USED IN REMARKS
   TC - TEMPERATURES IN CELSIUS
  WCI - WIND CHILL INDEX
   HX - HEAT INDEX
  VSB - VISIBILITY
$$


USA.gov is the U.S. government's official web portal to all federal, state and local government web resources and services.